Notices

What's New in latest Release from April 7th, 2021:

- Updated Glossary, including Speed of Maximum Gust, and Total Hourly Precipitation

- Updated national and regional climate services offices contacts and prices information

- Addition of station inventory lists for 1981-2010, 1971-2000, and 1961-1990 Normals.

If you haven't already, please take our survey and provide feedback about our website: https://eccc.sondage-survey.ca/f/LanguageSelection.aspx?s=442ca660-fcf1-47c0-95a9-59707d6fd709

Hourly Data Report for October 15, 2020

CARBERRY CS
MANITOBA
Current Station Operator: ECCC - MSC

49°54'20.900" N
99°21'26.800" W
383.50 m
5010547
71170
WZE

Download Data

Hourly Data (October 2020)
Hourly Data Report for October 15, 2020
TIME
LST
Temp Definition
°C
Dew Point Definition
°C
Rel Hum Definition
%
Precip. Amount Definition
mm

Wind Dir Definition
10's deg

Wind Spd Definition
km/h
Visibility Definition
km
Stn Press Definition
kPa
Hmdx Definition


Wind Chill Definition


Weather Definition


00:00 -3.6 -7.9 72 0.0 27 10   96.81   -8 LegendNANA
01:00 -3.9 -8.2 72 0.0 26 10   96.80   -8 LegendNANA
02:00 -4.0 -8.2 73 0.0 26 15   96.77   -9 LegendNANA
03:00 -4.4 -8.2 75 0.0 26 12   96.79   -9 LegendNANA
04:00 -2.5 -7.6 68 0.0 24 10   96.76   -6 LegendNANA
05:00 -2.5 -7.1 70 0.0 25 10   96.78   -6 LegendNANA
06:00 -2.9 -7.1 73 0.0 25 14   96.79   -8 LegendNANA
07:00 -2.8 -6.8 74 0.0 27 17   96.78   -8 LegendNANA
08:00 -2.1 -6.1 74 0.0 28 19   96.83   -8 LegendNANA
09:00 0.0 -5.9 65 0.0 30 20   96.89   -5 LegendNANA
10:00 1.3 -8.6 48 0.0 31 30   96.90     LegendNANA
11:00 2.3 -8.1 46 0.0 30 32   96.90     LegendNANA
12:00 3.2 -9.0 40 0.0 29 33   96.86     LegendNANA
13:00 3.3 -9.3 39 0.0 29 36   96.80     LegendNANA
14:00 3.9 -9.5 37 0.0 30 41   96.80     LegendNANA
15:00 4.1 -10.8 33 0.0 30 40   96.81     LegendNANA
16:00 3.6 -12.1 31 0.0 30 41   96.83     LegendNANA
17:00 2.9 -11.6 33 0.0 30 32   96.84     LegendNANA
18:00 0.8 -11.5 39 0.0 30 17   96.87     LegendNANA
19:00 -0.2 -11.5 42 0.0 30 17   96.89   -5 LegendNANA
20:00 -1.5 -11.4 47 0.0 29 15   96.89   -6 LegendNANA
21:00 -3.3 -11.1 55 0.0 29 13   96.90   -8 LegendNANA
22:00 -4.8 -10.8 62 0.0 28 12   96.90   -10 LegendNANA
23:00 -5.9 -11.1 67 0.0 26 14   96.90   -11 LegendNANA

Notes on Data Quality.

Legend

  • E = Estimated
  • M = Missing
  • NA = Not Available*
  • [empty] = Indicates an unobserved value
Date modified: